TimeCDT,TemperatureF,Dew PointF,Humidity,Sea Level PressureIn,VisibilityMPH,Wind Direction,Wind SpeedMPH,Gust SpeedMPH,PrecipitationIn,Events,Conditions,WindDirDegrees,DateUTC
12:15 AM,64.4,60.8,88,30.14,10.0,NE,3.5,-,N/A,Rain-Thunderstorm,Light Thunderstorms and Rain,50,2013-09-16 05:15:00
12:35 AM,62.6,60.8,94,30.14,10.0,Calm,Calm,-,N/A,Thunderstorm,Overcast,0,2013-09-16 05:35:00
12:55 AM,62.6,59.0,88,30.15,10.0,NNE,13.8,18.4,N/A,Thunderstorm,Overcast,20,2013-09-16 05:55:00
1:15 AM,62.6,59.0,88,30.16,10.0,NNE,10.4,17.3,N/A,Rain-Thunderstorm,Light Thunderstorms and Rain,20,2013-09-16 06:15:00
1:35 AM,60.8,59.0,94,30.18,7.0,Calm,Calm,-,N/A,Rain-Thunderstorm,Heavy Thunderstorms and Rain,0,2013-09-16 06:35:00
1:55 AM,60.8,59.0,94,30.17,10.0,NE,3.5,-,N/A,Rain,Rain,40,2013-09-16 06:55:00
2:15 AM,60.8,59.0,94,30.16,10.0,Calm,Calm,-,N/A,Rain,Light Rain,0,2013-09-16 07:15:00
2:35 AM,60.8,59.0,94,30.16,10.0,Calm,Calm,-,N/A,Rain,Rain,0,2013-09-16 07:35:00
2:55 AM,60.8,59.0,94,30.17,7.0,Calm,Calm,-,N/A,,Light Drizzle,0,2013-09-16 07:55:00
3:15 AM,60.8,59.0,94,30.17,7.0,Calm,Calm,-,N/A,,Overcast,0,2013-09-16 08:15:00
3:35 AM,60.8,59.0,94,30.18,7.0,Calm,Calm,-,N/A,,Overcast,0,2013-09-16 08:35:00
3:55 AM,60.8,59.0,94,30.17,5.0,Calm,Calm,-,N/A,,Overcast,0,2013-09-16 08:55:00
4:15 AM,60.8,59.0,94,30.17,7.0,Calm,Calm,-,N/A,,Overcast,0,2013-09-16 09:15:00
4:35 AM,60.8,59.0,94,30.18,7.0,Calm,Calm,-,N/A,,Overcast,0,2013-09-16 09:35:00
4:55 AM,60.8,59.0,94,30.19,5.0,Calm,Calm,-,N/A,Rain,Light Rain,0,2013-09-16 09:55:00
5:15 AM,60.8,59.0,94,30.19,7.0,NE,4.6,-,N/A,,Light Drizzle,50,2013-09-16 10:15:00
5:35 AM,60.8,59.0,94,30.20,7.0,Calm,Calm,-,N/A,,Overcast,0,2013-09-16 10:35:00
5:55 AM,60.8,57.2,88,30.19,7.0,Calm,Calm,-,N/A,,Overcast,0,2013-09-16 10:55:00
6:15 AM,60.8,57.2,88,30.20,7.0,Calm,Calm,-,N/A,,Overcast,0,2013-09-16 11:15:00
6:35 AM,59.0,57.2,94,30.20,4.0,Calm,Calm,-,N/A,,Overcast,0,2013-09-16 11:35:00
6:55 AM,59.0,57.2,94,30.21,5.0,Calm,Calm,-,N/A,,Overcast,0,2013-09-16 11:55:00
7:15 AM,59.0,55.4,88,30.21,7.0,Calm,Calm,-,N/A,,Overcast,0,2013-09-16 12:15:00
7:35 AM,59.0,55.4,88,30.22,7.0,Calm,Calm,-,N/A,,Overcast,0,2013-09-16 12:35:00
7:55 AM,59.0,55.4,88,30.23,10.0,Calm,Calm,-,N/A,,Overcast,0,2013-09-16 12:55:00
8:15 AM,59.0,55.4,88,30.23,10.0,Calm,Calm,-,N/A,,Overcast,0,2013-09-16 13:15:00
8:35 AM,59.0,55.4,88,30.24,10.0,NE,10.4,16.1,N/A,,Overcast,50,2013-09-16 13:35:00
8:55 AM,59.0,55.4,88,30.25,10.0,Calm,Calm,-,N/A,,Overcast,0,2013-09-16 13:55:00
9:15 AM,59.0,55.4,88,30.26,10.0,NE,12.7,17.3,N/A,,Overcast,50,2013-09-16 14:15:00
9:35 AM,59.0,53.6,82,30.27,10.0,Calm,Calm,-,N/A,,Overcast,0,2013-09-16 14:35:00
9:55 AM,59.0,53.6,82,30.27,10.0,Calm,Calm,-,N/A,,Overcast,0,2013-09-16 14:55:00
10:15 AM,59.0,53.6,82,30.27,10.0,Calm,Calm,-,N/A,,Overcast,0,2013-09-16 15:15:00
10:35 AM,59.0,53.6,82,30.28,10.0,Calm,Calm,-,N/A,,Overcast,0,2013-09-16 15:35:00
10:55 AM,59.0,53.6,82,30.28,10.0,Calm,Calm,-,N/A,,Overcast,0,2013-09-16 15:55:00
11:15 AM,59.0,53.6,82,30.28,10.0,Calm,Calm,-,N/A,,Overcast,0,2013-09-16 16:15:00
11:35 AM,59.0,53.6,82,30.27,10.0,NE,8.1,-,N/A,,Overcast,50,2013-09-16 16:35:00
11:55 AM,59.0,53.6,82,30.27,10.0,NE,8.1,-,N/A,,Overcast,50,2013-09-16 16:55:00
12:15 PM,59.0,55.4,88,30.27,10.0,Calm,Calm,-,N/A,,Overcast,0,2013-09-16 17:15:00
12:35 PM,59.0,55.4,88,30.27,10.0,ENE,5.8,16.1,N/A,,Overcast,60,2013-09-16 17:35:00
12:55 PM,59.0,55.4,88,30.27,10.0,Calm,Calm,-,N/A,,Overcast,0,2013-09-16 17:55:00
1:15 PM,59.0,55.4,88,30.27,10.0,NE,3.5,-,N/A,,Overcast,50,2013-09-16 18:15:00
1:35 PM,59.0,55.4,88,30.27,10.0,NE,5.8,-,N/A,,Overcast,40,2013-09-16 18:35:00
1:55 PM,59.0,55.4,88,30.26,4.0,ENE,6.9,-,N/A,,Overcast,60,2013-09-16 18:55:00
2:15 PM,59.0,55.4,88,30.25,3.0,NE,3.5,-,N/A,,Overcast,50,2013-09-16 19:15:00
2:35 PM,59.0,55.4,88,30.24,5.0,Calm,Calm,-,N/A,,Overcast,0,2013-09-16 19:35:00
2:55 PM,59.0,55.4,88,30.24,7.0,Calm,Calm,-,N/A,,Overcast,0,2013-09-16 19:55:00
3:15 PM,60.8,55.4,82,30.23,7.0,Calm,Calm,-,N/A,,Overcast,0,2013-09-16 20:15:00
3:35 PM,60.8,55.4,82,30.22,10.0,NE,5.8,-,N/A,,Overcast,50,2013-09-16 20:35:00
3:55 PM,60.8,55.4,82,30.22,10.0,Calm,Calm,-,N/A,,Overcast,0,2013-09-16 20:55:00
4:15 PM,60.8,55.4,82,30.22,10.0,Calm,Calm,-,N/A,,Overcast,0,2013-09-16 21:15:00
4:35 PM,60.8,55.4,82,30.21,10.0,ENE,4.6,-,N/A,,Overcast,60,2013-09-16 21:35:00
4:55 PM,60.8,55.4,82,30.20,10.0,NE,9.2,16.1,N/A,,Overcast,50,2013-09-16 21:55:00
5:15 PM,60.8,55.4,82,30.20,10.0,ENE,10.4,16.1,N/A,,Overcast,60,2013-09-16 22:15:00
5:35 PM,60.8,55.4,82,30.20,10.0,Calm,Calm,-,N/A,,Overcast,0,2013-09-16 22:35:00
6:15 PM,60.8,55.4,82,30.20,10.0,Calm,Calm,-,N/A,,Overcast,0,2013-09-16 23:15:00
6:35 PM,62.6,55.4,77,30.20,10.0,Calm,Calm,-,N/A,,Overcast,0,2013-09-16 23:35:00
7:15 PM,62.6,55.4,77,30.20,10.0,Calm,Calm,-,N/A,,Overcast,0,2013-09-17 00:15:00
7:35 PM,60.8,55.4,82,30.20,10.0,Calm,Calm,-,N/A,,Overcast,0,2013-09-17 00:35:00
7:55 PM,60.8,55.4,82,30.20,10.0,Calm,Calm,-,N/A,,Overcast,0,2013-09-17 00:55:00
8:15 PM,60.8,57.2,88,30.20,10.0,Calm,Calm,-,N/A,,Overcast,0,2013-09-17 01:15:00
8:35 PM,60.8,57.2,88,30.21,10.0,Calm,Calm,-,N/A,,Overcast,0,2013-09-17 01:35:00
8:55 PM,60.8,57.2,88,30.21,10.0,Calm,Calm,-,N/A,,Overcast,0,2013-09-17 01:55:00
9:15 PM,60.8,57.2,88,30.22,10.0,Calm,Calm,-,N/A,,Overcast,0,2013-09-17 02:15:00
9:35 PM,60.8,57.2,88,30.22,10.0,Calm,Calm,-,N/A,,Overcast,0,2013-09-17 02:35:00
9:55 PM,60.8,57.2,88,30.22,10.0,Calm,Calm,-,N/A,,Overcast,0,2013-09-17 02:55:00
10:15 PM,60.8,57.2,88,30.22,10.0,Calm,Calm,-,N/A,,Overcast,0,2013-09-17 03:15:00
10:35 PM,60.8,57.2,88,30.22,10.0,Calm,Calm,-,N/A,,Overcast,0,2013-09-17 03:35:00
10:55 PM,60.8,57.2,88,30.22,10.0,Calm,Calm,-,N/A,,Overcast,0,2013-09-17 03:55:00
11:15 PM,60.8,59.0,94,30.22,10.0,Calm,Calm,-,N/A,,Overcast,0,2013-09-17 04:15:00
11:35 PM,60.8,59.0,94,30.21,10.0,Calm,Calm,-,N/A,,Overcast,0,2013-09-17 04:35:00
11:55 PM,60.8,59.0,94,30.21,10.0,Calm,Calm,-,N/A,,Overcast,0,2013-09-17 04:55:00